Location: Unspecified
(44.4377°N, 88.0525°W)
Time: 05:41:53
(UTC-06:00)

Cosmos 1674 - Visible Passes

Search period start: 17 December 2018 00:00
Search period end: 27 December 2018 00:00
Orbit: 496 x 520 km, 82.5° (Epoch: 16 December)

Date Brightness Start Highest point End Pass type
(mag) Time Alt. Az. Time Alt. Az. Time Alt. Az.
23 Dec 5.5 06:45:27 10° NNE 06:47:53 16° ENE 06:50:18 10° ESE visible
24 Dec 5.6 06:28:38 10° NE 06:30:25 13° ENE 06:32:11 10° E visible
25 Dec 6.0 06:12:45 10° ENE 06:12:56 10° ENE 06:13:06 10° ENE visible
